Airfield :
LOGIN :

Register | Disclaimer

   EN    FR    IT 

 










Legend :    VFR   Marginal VFR   IFR   Intensive IFR   Very Intensive IFR
Visi :
Ceiling :
>= 8 km
>= 3000ft
5 to 8 km
1000 to 3000 ft
1500m to 5 km
500 to 1000 ft
800 to 1500m
200 to 500 ft
< 800m
< 200 ft
Symbols :   Thunderstorms  Fog  Heavy snow  Heavy precipitations  Wind > 20 kt
SIGMETs :     Misc.  Thunderstorms  Icing  Turbulence  Mountain Waves  Volcanic Ashes







- Airport Elevation : 291 ft
- IATA code : ORY
- Download approach charts


LFPO - Paris-Orly

CURRENT METAR :
  • 202200Z 30003KT CAVOK 15/08 Q1014 NOSIG

EXPIRED METARs :
  • 202130Z 30003KT CAVOK 16/08 Q1014 NOSIG
  • 202100Z 30003KT CAVOK 17/08 Q1014 NOSIG
  • 202030Z 30003KT CAVOK 18/08 Q1014 NOSIG
  • 202000Z 31005KT 290V360 CAVOK 18/08 Q1014 NOSIG
  • 201930Z 27006KT 250V310 CAVOK 18/09 Q1014 NOSIG

TAF TAF LFPO
Valid from the 20 at 18:00 until the 22 at 00:00 UTC


201700Z 2018/2124 29008KT CAVOK
BECMG 2021/2023 VRB03KT
BECMG 2101/2104 15005KT
BECMG 2106/2109 20010KT SCT030
BECMG 2112/2114 CAVOK
ATIS : +33 1 49 75 65 80
No reported NOTAMs for that airfield.



MET'MAP, your aeronautical weather chart ! - Copyright ORBIFLY December 2007 - Disclaimer

ORBIFLY MET'MAP TEAM :

Programming & Development : Alexandra Zaïnal
Concept & Development : Baudouin d'Aumeries
Co-Development & Prog : Marc-Olivier Méhu
Technical & hardware support : Manuel Goepfert

Contact : metmap@orbifly.com




SOURCES & CREDITS :

   NOAA